Regional Weather Roundup
Issued by NWS

Home | Current Version | Previous Version | Text Only | Print | Product List | Glossary Off
Versions: 1 2 3 4 5 6 7 8 9 10 11 12 13 14 15 16 17 18 19 20 21 22 23 24 25 26 27 28 29 30 31 32 33 34 35 36 37 38 39 40 41 42 43 44 45 46 47 48 49 50

724
ASUS43 KMKX 130400
RWRWI

WISCONSIN REGIONAL WEATHER ROUNDUP
NATIONAL WEATHER SERVICE MILWAUKEE/SULLIVAN WI
1000 PM CST FRI FEB 12 2016

NOTE: "FAIR" INDICATES FEW OR NO CLOUDS BELOW 12,000 FEET WITH NO
SIGNIFICANT WEATHER AND/OR OBSTRUCTIONS TO VISIBILITY.

WIZ001-002-006>008-014>016-023>028-130500-
NORTHWEST WISCONSIN

CITY           SKY/WX    TMP DP  RH WIND       PRES   REMARKS
SUPERIOR ARPT  PTCLDY    -2 -16  51 NW8       30.57R WCI -17
ASHLAND        CLEAR     -2 -11  65 NW8       30.51R WCI -17
HAYWARD        CLEAR     -4 -18  51 VRB3      30.48R
SIREN          CLEAR     -2 -17  49 NW7       30.55R WCI -16
CUMBERLAND     CLEAR      0 -18  42 NW13      30.49S WCI -18
RICE LAKE      CLEAR     -1 -17  48 NW6       30.51S WCI -13
CHETEK         CLEAR     -3 -16  54 MISG      30.51R
LADYSMITH      CLEAR     -4 -18  51 NW6       30.47R WCI -16
EAU CLAIRE     NOT AVBL
MENOMONIE      CLOUDY     1 -14  49 W9        30.54R WCI -14
NEW RICHMOND   CLOUDY     0 -14  50 N13       30.54S WCI -18
OSCEOLA        CLEAR      2 -14  48 N5        30.58S WCI  -8
$$

WIZ003>005-009-010-017-018-130500-
NORTH CENTRAL WISCONSIN

CITY           SKY/WX    TMP DP  RH WIND       PRES   REMARKS
MANITOWISH WTR CLOUDY    -4  -9  77 NW9       30.33R WCI -20
ARBOR VITAE    CLEAR     -2 -10  69 NW6       30.33R WCI -14
WOODRUFF       CLEAR     -2 -10  69 NW6       30.33R WCI -14
RHINELANDER    CLEAR     -5 -14  65 NW9       30.32S WCI -22
EAGLE RIVER    CLEAR     -4 -10  73 W7        30.30R WCI -18
LAND O LAKES   CLEAR     -1  -6  80 NW7G16    30.30R WCI -15
PHILLIPS       CLEAR     -6 -17  60 W3        30.38S
TOMAHAWK       CLEAR     -6 -16  62 W8        30.36S WCI -21
MEDFORD        CLEAR     -4 -17  53 NW7       30.39R WCI -17
MERRILL        CLEAR     -2 -15  54 NW12G18   30.38S WCI -20
$$

WIZ029-030-035-036-043>047-130500-
CENTRAL WISCONSIN

CITY           SKY/WX    TMP DP  RH WIND       PRES   REMARKS
WAUSAU         CLEAR      0 -14  51 NW10      30.39R WCI -16
MOSINEE        CLEAR     -2 -15  55 W6        30.41R WCI -14
MARSHFIELD     CLEAR     -2 -18  46 NW10      30.42R WCI -19
STEVENS POINT  CLEAR     -2 -15  53 NW5       30.43R WCI -12
WAUPACA        PTCLDY     3 -13  47 NW7       30.45R WCI  -9
WAUTOMA        NOT AVBL
WISC RAPIDS    CLEAR     -1 -16  48 NW7       30.47R WCI -14
CAMP DOUGLAS   NOT AVBL
$$

WIZ011>013-019>022-031-037>040-048>050-130500-
NORTHEAST WISCONSIN

CITY           SKY/WX    TMP DP  RH WIND       PRES   REMARKS
ANTIGO         CLEAR     -4 -13  64 NW10      30.32S WCI -21
SHAWANO        CLEAR      2 -12  52 W3        30.43R
OCONTO         CLEAR      1 -11  58 NW7       30.41R WCI -12
STURGEON BAY     N/A      0 N/A N/A NW12      30.39R WCI -18
GREEN BAY      CLEAR      0 -13  54 W9        30.42R WCI -15
MANITOWOC      NOT AVBL
APPLETON       CLEAR      0 -15  50 W13       30.40R WCI -18
CLINTONVILLE   CLEAR      1 -13  51 NW12      30.43R WCI -15
OSHKOSH        CLEAR      2 -12  52 NW13G20   30.44R WCI -15
$$

WIZ032>034-041-042-053>061-130500-
SOUTHWEST WISCONSIN

CITY           SKY/WX    TMP DP  RH WIND       PRES   REMARKS
LA CROSSE      CLEAR      2 -11  54 NW8       30.55R WCI -12
SPARTA         CLEAR      3 -13  48 NW7       30.52R WCI -10
VIROQUA        CLEAR      0 -13  52 NW9       30.46R WCI -15
BOSCOBEL       CLEAR      6 -12  43 N6        30.54R WCI  -4
PRAIRIE DU CHI CLOUDY     7 -12  43 NW10      30.55R WCI  -8
PLATTEVILLE    CLEAR      7  -8  50 NW14      30.47R WCI -10
$$

WIZ056-057-062-063-064-067-068-130500-
SOUTH CENTRAL WISCONSIN

CITY           SKY/WX    TMP DP  RH WIND       PRES   REMARKS
REEDSBURG      CLEAR      3 -13  46 NW8       30.48R WCI -10
BARABOO/DELLS  CLEAR      2 -13  48 NW6       30.47R WCI  -9
LONE ROCK      NOT AVBL
MINERAL POINT  CLEAR      7 -11  43 NW16      30.45R WCI -11
MADISON        CLEAR      4 -13  45 N13G23    30.47R WCI -13
MIDDLETON      CLEAR      6  -9  51 NW14      30.46R WCI -11
WATERTOWN      CLEAR      5  -9  52 NW13G20   30.44R WCI -12
MONROE         CLEAR      7  -9  47 N20G25    30.45R WCI -13
JANESVILLE     CLEAR     10  -8  44 N15G23    30.45R WCI  -6
$$

WIZ051-052-058>065-066-070>072-130500-
SOUTHEAST WISCONSIN

CITY           SKY/WX    TMP DP  RH WIND       PRES   REMARKS
MILWAUKEE      CLEAR      5 -11  47 N21G28    30.43R WCI -16
WAUKESHA       CLEAR      3  -9  55 NW14G20   30.43R WCI -15
MILWAUKEE/TIMM CLEAR      5 -11  47 N14       30.44R WCI -12
RACINE         CLEAR      7 -10  46 NW18G29   30.44R WCI -12
BURLINGTON     CLEAR      5 -10  50 NW15      30.44R WCI -13
KENOSHA        CLEAR      7  -8  50 N15G24    30.42R WCI -10
FOND DU LAC    CLEAR      2 -12  52 NW10      30.45R WCI -14
SHEBOYGAN      CLEAR      2 -12  52 NW12      30.42R WCI -15
WEST BEND      CLEAR      3 -13  47 NW9G21    30.42R WCI -11
JUNEAU         CLEAR      2 -10  55 NW9G16    30.45R WCI -12
$$

LSZ147-162-130500-
LAKE SUPERIOR

STATION/POSITION TIME  TEMP    WIND        PRES    WAVE
                       AIR SEA DIR/SP/G            HT/PER
                 (UTC) (F)     (DEG/KT/KT) (MB)    (FT/S)
DEVILS ISLAND    0300    2     320/ 27/ 33 1033.7F
SAXON HARBOR     0300    4                 1031.5R
$$

LMZ867-665-643>646-130500-
LAKE MICHIGAN

STATION/POSITION TIME  TEMP    WIND        PRES    WAVE
                       AIR SEA DIR/SP/G            HT/PER
                 (UTC) (F)     (DEG/KT/KT) (MB)    (FT/S)
CHAMBERS ISLAND  0300    2     290/  8/ 15 1028.1R
SISTER BAY       0320    2     330/ 23/ 28   N/A
ALGOMA LAKESHORE 0311          310/  4/  8   N/A
KEWAUNEE LAKESHO 0300    2                 1028.2R
SHEBOYGAN LAKESH 0300    5     320/ 13/ 17 1031.6R
PORT WASHINGTON  0300    6     320/ 12/ 20 1030.8
MILWAUKEE LAKESH 0310    8     340/ 20/ 25   N/A
KENOSHA   LAKESH 0300   10     320/ 18/ 25 1028.8R
$$

TC  - TEMPERATURE IN CELSIUS
VSB - VISIBILITY IN STATUTE MILES
WCI - WIND CHILL INDEX
HX  - HEAT INDEX





USA.gov is the U.S. government's official web portal to all federal, state and local government web resources and services.